Home > Weather > Guadalajara > Past weeks

Flag for Mexico Past Weather in Guadalajara, Jalisco, Mexico — Yesterday and Last 2 Weeks

Now
61 °F

Passing clouds.


Feels Like: 61 °F
Forecast: 62 / 78 °F
Wind: 3 mph from South

Location: Don Miguel / Guadalaj

Current Time: Aug 27, 2016 at 8:42:15 AM

Latest Report: Aug 27, 2016 at 7:52 AM


Visibility: 7 mi

Pressure: 30.20 "Hg (25.17 "Hg at 1543m altitude)

Humidity: 94%

Dew Point: 59 °F

Location of GuadalajaraLocation

Past Weather in Guadalajara — Graph

°F

Guadalajara Temperature Yesterday

Maximum temperature yesterday: 79 °F (at 6:01 AM)
Minimum temperature yesterday: 61 °F (at 3:51 AM)
Average temperature yesterday: 71 °F

High & Low Weather Summary for the Past Weeks

 TemperatureHumidityPressure
High82 °F (Aug 13, 5:53 PM)94% (Aug 12, 6:54 AM)30.33 "Hg (Aug 12, 6:54 AM)
Low59 °F (Aug 23, 5:46 AM)39% (Aug 12, 6:51 PM)29.67 "Hg (Aug 14, 6:51 PM)
Average69 °F75%30.08 "Hg
* Reported Aug 12 6:54 AM — Aug 27 6:46 AM, Guadalajara, Weather by CustomWeather, © 2016

Note: Actual official high and low records may vary slightly from our data, if they occured in-between our weather recording intervals... More about our weather records

Advertising

Guadalajara Weather History for the Previous 24 Hours

Scroll right to see more
 ConditionsComfort  
Time TempWeatherWind HumidityBarometerVisibility
6:46 AM
Sat, Aug 27
61 °FPassing clouds.3 mph94%29.88 "Hg10 mi
4:45 AM61 °FPassing clouds.No wind94%30.16 "Hg10 mi
3:52 AM63 °FPartly cloudy.No wind94%29.85 "Hg10 mi
11:56 PM
Fri, Aug 26
66 °FPartly cloudy.No wind83%30.20 "Hg10 mi
10:46 PM66 °FPartly cloudy.No wind83%30.20 "Hg10 mi
8:45 PM70 °FBroken clouds.3 mph78%30.15 "Hg10 mi
7:49 PM72 °FBroken clouds.No wind69%30.12 "Hg10 mi
6:49 PM75 °FCloudy.No wind57%29.84 "Hg8 mi
5:51 PM75 °FCloudy.7 mph54%30.12 "Hg10 mi
4:52 PM77 °FMostly cloudy.No wind44%30.13 "Hg10 mi
3:51 PM75 °FMostly cloudy.6 mph54%29.84 "Hg10 mi
2:55 PM79 °FPartly sunny.No wind54%30.15 "Hg10 mi
1:54 PM79 °FPartly sunny.3 mph54%30.19 "Hg10 mi
12:53 PM73 °FPartly sunny.3 mph57%29.90 "Hg8 mi
11:50 AM73 °FPartly sunny.5 mph57%30.22 "Hg8 mi
8:52 AM64 °FPartly sunny.3 mph88%30.23 "Hg6 mi
Weather by CustomWeather, © 2016

See weather overviewHow to use our weather pages